FW7504 Weather Reports


time (UTC)temp
C
wind
direction
speed
KPH
gust
KPH
rain 1hr
cm
rain 24hr
cm
rain mn
cm
humidity
%
barometer
mb
20260902032553 26 0 0.0 0.0 0.00 0.00 0.00 79 1020.1
20260902032052 26 0 0.0 0.0 0.00 0.00 0.00 79 1020.0
20260902031559 26 0 0.0 0.0 0.00 0.00 0.00 79 1020.0
20260902031053 26 0 0.0 0.0 0.00 0.00 0.00 78 1020.0
20260902030554 26 0 0.0 0.0 0.00 0.00 0.00 78 1020.0
20260902025553 27 0 0.0 0.0 0.00 0.00 0.00 78 1019.9
20260902025054 27 0 0.0 0.0 0.00 0.00 0.00 78 1019.9
20260902024558 27 0 0.0 0.0 0.00 0.00 0.00 78 1020.0
20260902024053 27 0 0.0 0.0 0.00 0.00 0.00 77 1019.9
20260902023552 27 0 0.0 0.0 0.00 0.00 0.00 77 1019.8
20260902023109 27 0 0.0 0.0 0.00 0.00 0.00 76 1019.8
20260902022553 27 0 0.0 0.0 0.00 0.00 0.00 76 1019.9
20260902022053 27 0 0.0 0.0 0.00 0.00 0.00 76 1019.8
20260902021603 27 0 0.0 0.0 0.00 0.00 0.00 76 1019.7
20260902021052 27 0 0.0 0.0 0.00 0.00 0.00 75 1019.7
20260902020553 27 0 0.0 0.0 0.00 0.00 0.00 75 1019.7
20260902020100 27 0 0.0 0.0 0.00 0.00 0.00 75 1019.7
20260902015553 28 0 0.0 0.0 0.00 0.00 0.00 74 1019.7
20260902015052 28 0 0.0 0.0 0.00 0.00 0.00 74 1019.6
20260902014603 28 0 0.0 0.0 0.00 0.00 0.00 73 1019.6
20260902014053 28 0 0.0 0.0 0.00 0.00 0.00 73 1019.5
20260902013556 28 0 0.0 0.0 0.00 0.00 0.00 72 1019.5
20260902013103 28 0 0.0 0.0 0.00 0.00 0.00 72 1019.3
20260902012552 28 0 0.0 0.0 0.00 0.00 0.00 72 1019.2
20260902012053 28 0 0.0 0.0 0.00 0.00 0.00 72 1019.3
20260902011608 28 0 0.0 0.0 0.00 0.00 0.00 71 1019.3
20260902011053 29 0 0.0 0.0 0.00 0.00 0.00 70 1019.3
20260902010553 29 0 0.0 0.0 0.00 0.00 0.00 69 1019.3
20260902010117 29 0 0.0 0.0 0.00 0.00 0.00 69 1019.2
20260902005552 29 0 0.0 0.0 0.00 0.00 0.00 69 1019.1
20260902005054 30 0 0.0 0.0 0.00 0.00 0.00 68 1019.1
20260902004607 30 0 0.0 0.0 0.00 0.00 0.00 68 1019.1
20260902004053 30 0 0.0 0.0 0.00 0.00 0.00 67 1019.2
20260902003553 30 0 0.0 0.0 0.00 0.00 0.00 67 1019.1
20260902003105 30 0 0.0 0.0 0.00 0.00 0.00 66 1019.0
20260902002553 30 0 0.0 0.0 0.00 0.00 0.00 66 1019.1
20260902002053 31 0 0.0 0.0 0.00 0.00 0.00 65 1019.1
20260902001622 31 0 0.0 0.0 0.00 0.00 0.00 64 1019.1
20260902001055 31 0 0.0 0.0 0.00 0.00 0.00 63 1018.9
20260902000552 31 0 0.0 0.0 0.00 0.00 0.00 62 1019.1
20260902000107 32 0 0.0 0.0 0.00 0.00 0.00 61 1019.0
20260901235553 32 0 0.0 0.0 0.00 0.00 0.00 60 1019.1
20260901235053 32 0 0.0 0.0 0.00 0.00 0.00 59 1019.1
20260901234604 32 0 0.0 1.6 0.00 0.00 0.00 57 1019.1
20260901234053 32 0 0.0 3.2 0.00 0.00 0.00 56 1019.1
20260901233553 33 0 0.0 3.2 0.00 0.00 0.00 56 1019.2
20260901233102 33 0 0.0 3.2 0.00 0.00 0.00 55 1019.2
20260901232554 33 0 0.0 8.0 0.00 0.00 0.00 54 1019.3
20260901232054 33 0 0.0 8.0 0.00 0.00 0.00 54 1019.2
20260901231607 33 360 4.8 8.0 0.00 0.00 0.00 53 1019.2
20260901231052 33 360 1.6 9.7 0.00 0.00 0.00 52 1019.2
20260901230553 33 360 0.0 9.7 0.00 0.00 0.00 52 1019.2
20260901230059 33 360 3.2 9.7 0.00 0.00 0.00 52 1019.2
20260901225553 33 360 1.6 8.0 0.00 0.00 0.00 52 1019.1
20260901225052 33 360 1.6 12.9 0.00 0.00 0.00 52 1019.2
20260901224605 33 360 3.2 12.9 0.00 0.00 0.00 51 1019.2
20260901224052 33 360 1.6 9.7 0.00 0.00 0.00 52 1019.1
20260901223552 33 360 4.8 9.7 0.00 0.00 0.00 51 1019.0
20260901223102 34 0 1.6 6.4 0.00 0.00 0.00 51 1018.9
20260901222552 34 360 1.6 6.4 0.00 0.00 0.00 50 1019.0
20260901222056 34 0 1.6 8.0 0.00 0.00 0.00 50 1019.0
20260901221621 34 360 0.0 8.0 0.00 0.00 0.00 50 1019.1
20260901221053 34 360 3.2 8.0 0.00 0.00 0.00 50 1019.1
20260901220552 34 360 0.0 9.7 0.00 0.00 0.00 50 1018.8
20260901220122 34 0 0.0 9.7 0.00 0.00 0.00 49 1018.8
20260901215552 34 360 0.0 9.7 0.00 0.00 0.00 49 1018.8
20260901215052 34 0 4.8 9.7 0.00 0.00 0.00 49 1019.0
20260901214604 34 360 1.6 9.7 0.00 0.00 0.00 49 1019.0
20260901214053 34 360 1.6 9.7 0.00 0.00 0.00 49 1018.9
20260901213553 34 360 0.0 12.9 0.00 0.00 0.00 49 1019.0
20260901213107 34 0 1.6 12.9 0.00 0.00 0.00 49 1019.0
20260901212553 34 360 4.8 12.9 0.00 0.00 0.00 50 1019.1
20260901212056 34 0 0.0 6.4 0.00 0.00 0.00 50 1019.2
20260901211600 34 360 1.6 8.0 0.00 0.00 0.00 50 1019.2
20260901211052 33 0 1.6 9.7 0.00 0.00 0.00 50 1019.2
20260901210552 33 360 3.2 14.5 0.00 0.00 0.00 50 1019.2
20260901210106 33 360 4.8 14.5 0.00 0.00 0.00 51 1019.1
20260901205552 33 360 4.8 14.5 0.00 0.00 0.00 50 1019.2
20260901205056 33 360 3.2 12.9 0.00 0.00 0.00 51 1019.2
20260901204606 33 0 3.2 14.5 0.00 0.00 0.00 52 1019.3
20260901204058 33 360 4.8 14.5 0.00 0.00 0.00 52 1019.3
20260901203553 33 0 4.8 14.5 0.00 0.00 0.00 51 1019.3
20260901203103 33 0 6.4 14.5 0.00 0.00 0.00 50 1019.4
20260901202553 33 360 6.4 14.5 0.00 0.00 0.00 51 1019.5
20260901202052 33 360 1.6 8.0 0.00 0.00 0.00 52 1019.6
20260901201602 33 360 0.0 3.2 0.00 0.00 0.00 53 1019.6
20260901201052 33 0 0.0 6.4 0.00 0.00 0.00 51 1019.7
20260901200553 33 0 0.0 9.7 0.00 0.00 0.00 52 1019.8
20260901195553 33 360 4.8 9.7 0.00 0.00 0.00 52 1019.8
20260901195053 33 360 1.6 8.0 0.00 0.00 0.00 52 1019.8
20260901194601 33 0 3.2 14.5 0.00 0.00 0.00 51 1020.0
20260901194055 33 360 4.8 14.5 0.00 0.00 0.00 52 1020.0
20260901193553 33 360 3.2 12.9 0.00 0.00 0.00 53 1020.1
20260901193107 33 360 1.6 8.0 0.00 0.00 0.00 53 1020.1
20260901192556 33 360 1.6 8.0 0.00 0.00 0.00 53 1020.2
20260901192052 33 360 1.6 8.0 0.00 0.00 0.00 52 1020.3
20260901191619 33 0 3.2 9.7 0.00 0.00 0.00 52 1020.4
20260901191055 33 360 1.6 9.7 0.00 0.00 0.00 52 1020.3
20260901190554 33 360 0.0 6.4 0.00 0.00 0.00 53 1020.5
20260901190101 33 0 0.0 6.4 0.00 0.00 0.00 52 1020.4
20260901185553 33 0 1.6 14.5 0.00 0.00 0.00 51 1020.5
20260901185052 33 360 3.2 14.5 0.00 0.00 0.00 52 1020.4
20260901184602 33 360 4.8 14.5 0.00 0.00 0.00 52 1020.4
20260901184052 33 360 4.8 12.9 0.00 0.00 0.00 51 1020.5
20260901183552 33 360 3.2 9.7 0.00 0.00 0.00 50 1020.6
20260901183104 33 0 0.0 6.4 0.00 0.00 0.00 52 1020.6
20260901182554 33 360 0.0 4.8 0.00 0.00 0.00 52 1020.7
20260901182053 33 0 0.0 8.0 0.00 0.00 0.00 52 1020.8
20260901181610 33 0 1.6 12.9 0.00 0.00 0.00 50 1020.8
20260901181052 33 0 3.2 12.9 0.00 0.00 0.00 51 1020.9
20260901180553 33 360 1.6 12.9 0.00 0.00 0.00 51 1020.9
20260901175553 33 360 1.6 8.0 0.00 0.00 0.00 53 1020.9
20260901175052 33 0 1.6 8.0 0.00 0.00 0.00 54 1021.0
20260901174605 32 360 1.6 8.0 0.00 0.00 0.00 54 1021.0
20260901174052 32 360 1.6 8.0 0.00 0.00 0.00 53 1021.0
20260901173552 32 360 1.6 8.0 0.00 0.00 0.00 55 1021.1
20260901173106 32 360 1.6 8.0 0.00 0.00 0.00 55 1021.1
20260901172552 32 0 1.6 9.7 0.00 0.00 0.00 57 1021.3
20260901172054 32 360 3.2 9.7 0.00 0.00 0.00 59 1021.3
20260901171607 32 360 0.0 6.4 0.00 0.00 0.00 60 1021.4
20260901171052 32 0 1.6 6.4 0.00 0.00 0.00 59 1021.5
20260901170555 32 360 0.0 4.8 0.00 0.00 0.00 60 1021.5
20260901170109 32 0 1.6 4.8 0.00 0.00 0.00 59 1021.6
20260901165619 31 0 0.0 6.4 0.00 0.00 0.00 60 1021.7
20260901165052 31 0 0.0 8.0 0.00 0.00 0.00 59 1021.8
20260901164600 31 360 3.2 8.0 0.00 0.00 0.00 60 1021.9
20260901164054 31 0 1.6 6.4 0.00 0.00 0.00 61 1021.8
20260901163552 31 360 0.0 3.2 0.00 0.00 0.00 63 1021.9
20260901163112 31 0 0.0 6.4 0.00 0.00 0.00 62 1022.0
20260901162556 31 0 1.6 8.0 0.00 0.00 0.00 62 1022.0
20260901162053 31 0 3.2 8.0 0.00 0.00 0.00 63 1022.0
20260901161612 30 76 0.0 6.4 0.00 0.00 0.00 63 1022.1
20260901161052 30 0 0.0 6.4 0.00 0.00 0.00 64 1022.2
20260901160555 30 350 0.0 6.4 0.00 0.00 0.00 65 1022.2
20260901160110 30 304 1.6 6.4 0.00 0.00 0.00 65 1022.2
20260901155552 30 291 0.0 4.8 0.00 0.00 0.00 66 1022.2
20260901155057 30 0 0.0 4.8 0.00 0.00 0.00 66 1022.4
20260901154609 30 335 0.0 4.8 0.00 0.00 0.00 67 1022.4
20260901154052 30 0 0.0 3.2 0.00 0.00 0.00 67 1022.4
20260901153552 30 318 0.0 3.2 0.00 0.00 0.00 66 1022.5
20260901153105 30 0 0.0 4.8 0.00 0.00 0.00 68 1022.4
20260901152552 30 248 0.0 4.8 0.00 0.00 0.00 70 1022.4
20260901152052 30 0 0.0 4.8 0.00 0.00 0.00 70 1022.5
20260901151607 30 0 1.6 4.8 0.00 0.00 0.00 70 1022.6
20260901151057 30 0 0.0 3.2 0.00 0.00 0.00 70 1022.5
20260901150552 30 0 0.0 4.8 0.00 0.00 0.00 71 1022.5
20260901150107 29 10 0.0 4.8 0.00 0.00 0.00 71 1022.6
20260901145552 29 13 1.6 4.8 0.00 0.00 0.00 72 1022.5
20260901145051 29 0 1.6 4.8 0.00 0.00 0.00 72 1022.7
20260901144601 29 0 0.0 0.0 0.00 0.00 0.00 72 1022.5
20260901144051 28 0 0.0 4.8 0.00 0.00 0.00 73 1022.6
20260901143553 28 0 0.0 4.8 0.00 0.00 0.00 73 1022.4
20260901143101 28 0 1.6 4.8 0.00 0.00 0.00 73 1022.5
20260901142553 28 0 0.0 8.0 0.00 0.00 0.00 74 1022.5
20260901142053 28 0 1.6 8.0 0.00 0.00 0.00 75 1022.6
20260901141602 27 360 1.6 6.4 0.00 0.00 0.00 76 1022.6
20260901141052 27 0 0.0 3.2 0.00 0.00 0.00 77 1022.3
20260901140552 27 360 0.0 3.2 0.00 0.00 0.00 78 1022.6
20260901140108 26 0 0.0 3.2 0.00 0.00 0.00 80 1022.6
20260901135553 26 0 0.0 4.8 0.00 0.00 0.00 80 1022.6
20260901135052 26 0 0.0 4.8 0.00 0.00 0.00 81 1022.6
20260901134603 26 360 0.0 4.8 0.00 0.00 0.00 83 1022.5
20260901134052 25 360 1.6 4.8 0.00 0.00 0.00 84 1022.5
20260901133552 25 0 0.0 3.2 0.00 0.00 0.00 84 1022.4
20260901133059 25 0 0.0 1.6 0.00 0.00 0.00 86 1022.4
20260901132555 24 0 0.0 0.0 0.00 0.00 0.00 87 1022.5
20260901132052 24 0 0.0 0.0 0.00 0.00 0.00 88 1022.6
20260901131602 23 0 0.0 0.0 0.00 0.00 0.00 88 1022.5
20260901131052 23 0 0.0 0.0 0.00 0.00 0.00 89 1022.4
20260901130552 23 0 0.0 0.0 0.00 0.00 0.00 89 1022.6
20260901130105 23 0 0.0 0.0 0.00 0.00 0.00 90 1022.5
20260901125551 22 0 0.0 0.0 0.00 0.00 0.00 91 1022.6
20260901125051 22 0 0.0 0.0 0.00 0.00 0.00 91 1022.5
20260901124602 22 0 0.0 0.0 0.00 0.00 0.00 91 1022.5
20260901124052 22 0 0.0 0.0 0.00 0.00 0.00 91 1022.5
20260901123552 22 0 0.0 0.0 0.00 0.00 0.00 91 1022.4
20260901123101 22 0 0.0 0.0 0.00 0.00 0.00 92 1022.4
20260901122553 21 0 0.0 0.0 0.00 0.00 0.00 92 1022.3
20260901122053 21 0 0.0 0.0 0.00 0.00 0.00 92 1022.3
20260901121602 21 0 0.0 0.0 0.00 0.00 0.00 92 1022.2
20260901121053 21 0 0.0 0.0 0.00 0.00 0.00 92 1022.1
20260901120552 21 0 0.0 0.0 0.00 0.00 0.00 92 1022.2
20260901120104 21 0 0.0 0.0 0.00 0.00 0.00 92 1022.0
20260901115552 21 0 0.0 0.0 0.00 0.00 0.00 92 1022.0
20260901115053 21 0 0.0 0.0 0.00 0.00 0.00 92 1021.9
20260901114643 21 0 0.0 0.0 0.00 0.00 0.00 92 1021.8
20260901114051 21 0 0.0 0.0 0.00 0.00 0.00 91 1021.8
20260901113552 21 0 0.0 0.0 0.00 0.00 0.00 91 1021.6
20260901113100 21 0 0.0 0.0 0.00 0.00 0.00 91 1021.5
20260901112552 21 0 0.0 0.0 0.00 0.00 0.00 91 1021.5
20260901112052 21 0 0.0 0.0 0.00 0.00 0.00 91 1021.4
20260901111606 21 0 0.0 0.0 0.00 0.00 0.00 91 1021.5
20260901111052 21 0 0.0 0.0 0.00 0.00 0.00 91 1021.4
20260901110552 21 0 0.0 0.0 0.00 0.00 0.00 91 1021.3
20260901105552 21 0 0.0 0.0 0.00 0.00 0.00 91 1021.2
20260901105051 21 0 0.0 0.0 0.00 0.00 0.00 91 1021.1
20260901104603 21 0 0.0 0.0 0.00 0.00 0.00 91 1021.2
20260901104052 21 0 0.0 0.0 0.00 0.00 0.00 91 1021.0
20260901103552 21 0 0.0 0.0 0.00 0.00 0.00 91 1021.0
20260901103106 21 0 0.0 0.0 0.00 0.00 0.00 91 1021.0
20260901102553 21 0 0.0 0.0 0.00 0.00 0.00 91 1021.0
20260901102049 21 0 0.0 0.0 0.00 0.00 0.00 90 1021.1
20260901101606 21 0 0.0 0.0 0.00 0.00 0.00 90 1021.0
20260901101053 21 0 0.0 0.0 0.00 0.00 0.00 90 1021.0
20260901100552 21 0 0.0 0.0 0.00 0.00 0.00 90 1021.0
20260901100110 21 0 0.0 0.0 0.00 0.00 0.00 90 1020.9
20260901095553 21 0 0.0 0.0 0.00 0.00 0.00 90 1021.0
20260901095052 21 0 0.0 0.0 0.00 0.00 0.00 90 1020.9
20260901094603 21 0 0.0 0.0 0.00 0.00 0.00 90 1020.7
20260901094052 21 0 0.0 0.0 0.00 0.00 0.00 90 1020.9
20260901093551 22 0 0.0 0.0 0.00 0.00 0.00 90 1020.9
20260901093105 22 0 0.0 0.0 0.00 0.00 0.00 90 1021.0
20260901092552 22 0 0.0 0.0 0.00 0.00 0.00 90 1020.9
20260901092052 22 0 0.0 3.2 0.00 0.00 0.00 90 1020.8
20260901091617 22 0 0.0 3.2 0.00 0.00 0.00 89 1020.7
20260901091053 22 360 0.0 3.2 0.00 0.00 0.00 89 1020.7
20260901090553 22 0 0.0 0.0 0.00 0.00 0.00 89 1020.8
20260901090105 22 0 0.0 0.0 0.00 0.00 0.00 89 1020.7
20260901085552 22 0 0.0 0.0 0.00 0.00 0.00 89 1020.6
20260901085052 22 0 0.0 0.0 0.00 0.00 0.00 89 1020.6
20260901084605 22 0 0.0 1.6 0.00 0.00 0.00 89 1020.6
20260901084053 22 0 0.0 1.6 0.00 0.00 0.00 89 1020.6
20260901083550 22 0 0.0 1.6 0.00 0.00 0.00 89 1020.5
20260901083106 22 0 0.0 0.0 0.00 0.00 0.00 89 1020.6
20260901082549 22 0 0.0 0.0 0.00 0.00 0.00 89 1020.5
20260901082053 22 0 0.0 0.0 0.00 0.00 0.00 88 1020.7
20260901081603 22 0 0.0 0.0 0.00 0.00 0.00 88 1020.7
20260901081052 22 0 0.0 0.0 0.00 0.00 0.00 88 1020.5
20260901080552 22 0 0.0 0.0 0.00 0.00 0.00 88 1020.4
20260901080107 22 0 0.0 0.0 0.00 0.00 0.00 88 1020.5
20260901075552 22 0 0.0 0.0 0.00 0.00 0.00 87 1020.5
20260901075049 22 0 0.0 0.0 0.00 0.00 0.00 88 1020.5
20260901074603 22 0 0.0 0.0 0.00 0.00 0.00 88 1020.3
20260901074051 22 0 0.0 0.0 0.00 0.00 0.00 88 1020.4
20260901073552 22 0 0.0 0.0 0.00 0.00 0.00 88 1020.4
20260901073106 22 0 0.0 0.0 0.00 0.00 0.00 87 1020.4
20260901072553 22 0 0.0 0.0 0.00 0.00 0.00 87 1020.3
20260901072053 22 0 0.0 0.0 0.00 0.00 0.00 87 1020.4
20260901071604 22 0 0.0 0.0 0.00 0.00 0.00 87 1020.5
20260901071049 22 0 0.0 0.0 0.00 0.00 0.00 87 1020.4
20260901070551 22 0 0.0 0.0 0.00 0.00 0.00 87 1020.5
20260901070114 23 0 0.0 0.0 0.00 0.00 0.00 86 1020.5
20260901065551 23 0 0.0 0.0 0.00 0.00 0.00 86 1020.4
20260901065053 23 0 0.0 0.0 0.00 0.00 0.00 86 1020.5
20260901064604 23 0 0.0 0.0 0.00 0.00 0.00 86 1020.6
20260901064051 23 0 0.0 1.6 0.00 0.00 0.00 86 1020.6
20260901063552 23 0 0.0 1.6 0.00 0.00 0.00 86 1020.7
20260901063101 23 0 0.0 1.6 0.00 0.00 0.00 85 1020.6
20260901062554 23 0 0.0 0.0 0.00 0.00 0.00 85 1020.8
20260901062055 23 0 0.0 0.0 0.00 0.00 0.00 85 1020.9
20260901061605 23 0 0.0 0.0 0.00 0.00 0.00 85 1020.8
20260901061052 23 0 0.0 0.0 0.00 0.00 0.00 85 1020.7
20260901060552 23 0 0.0 0.0 0.00 0.00 0.00 85 1020.7
20260901060107 23 0 0.0 0.0 0.00 0.00 0.00 85 1020.7
20260901055552 23 0 0.0 0.0 0.00 0.00 0.00 85 1020.7
20260901055052 23 0 0.0 0.0 0.00 0.00 0.00 85 1020.7
20260901054602 23 0 0.0 0.0 0.00 0.00 0.00 84 1020.7
20260901054054 23 0 0.0 0.0 0.00 0.00 0.00 84 1020.7
20260901053552 23 0 0.0 0.0 0.00 0.00 0.00 84 1020.8
20260901053116 23 0 0.0 1.6 0.00 0.00 0.00 84 1020.8
20260901052549 23 0 0.0 1.6 0.00 0.00 0.00 84 1020.9
20260901052051 23 0 0.0 0.0 0.00 0.00 0.00 84 1020.7
20260901051606 23 0 0.0 0.0 0.00 0.00 0.00 84 1020.8
20260901051052 23 0 0.0 0.0 0.00 0.00 0.00 83 1020.8
20260901050551 24 0 0.0 0.0 0.00 0.00 0.00 83 1020.9
20260901050108 24 0 0.0 0.0 0.00 0.00 0.00 83 1020.7
20260901045551 24 0 0.0 0.0 0.00 0.00 0.00 82 1020.8
20260901045052 24 0 0.0 0.0 0.00 0.00 0.00 83 1020.8
20260901044609 24 0 0.0 0.0 0.00 0.00 0.00 82 1020.7
20260901044055 24 0 0.0 3.2 0.00 0.00 0.00 82 1020.6
20260901043551 24 0 0.0 3.2 0.00 0.00 0.00 83 1020.6
20260901043104 24 360 1.6 3.2 0.00 0.00 0.00 83 1020.5
20260901042555 24 360 0.0 1.6 0.00 0.00 0.00 82 1020.6
20260901042052 24 0 0.0 0.0 0.00 0.00 0.00 82 1020.7
20260901041605 25 0 0.0 0.0 0.00 0.00 0.00 82 1020.8
20260901041055 25 0 0.0 0.0 0.00 0.00 0.00 82 1020.7
20260901040553 25 0 0.0 0.0 0.00 0.00 0.00 81 1020.7
20260901040106 25 0 0.0 1.6 0.00 0.00 0.00 81 1020.8
20260901035552 25 0 0.0 1.6 0.00 0.00 0.00 81 1020.7
20260901035052 25 360 0.0 1.6 0.00 0.00 0.00 81 1020.6
20260901034604 25 0 0.0 0.0 0.00 0.00 0.00 81 1020.6
20260901034051 25 0 0.0 0.0 0.00 0.00 0.00 80 1020.7
20260901033548 25 0 0.0 0.0 0.00 0.00 0.00 79 1020.6
20260901033118 25 0 0.0 1.6 0.00 0.00 0.00 79 1020.6